User: anonymous   Login
Location: Little Chesterford
(52.0500°N, 0.1833°E)
Time: 16:46:56
(UTC+00:00)
Language:

SPOT 5 - Orbit

View from above orbital plane
View from above orbital plane
View from above satellite
View from above satellite

Ground track
Ground track

The orbit data is extracted from the following two-line orbital elements,

1 27421U 02021A   24062.12541685  .00000528  00000-0  12472-3 0  9991
2 27421  98.1036 122.1328 0132818 354.2614   5.7054 14.53067306141239
Epoch (UTC): 02 March 2024 03:00:36
Eccentricity: 0.0132818
inclination: 98.1036°
perigee height: 621 km
apogee height: 810 km
right ascension of ascending node: 122.1328°
argument of perigee: 354.2614°
revolutions per day: 14.53067306
mean anomaly at epoch: 5.7054°
orbit number at epoch: 14123

The dashed part of the orbit path shows where the satellite is in the earth's shadow,  

DLR